Time,TemperatureF,DewpointF,PressureIn,WindDirection,WindDirectionDegrees,WindSpeedMPH,WindSpeedGustMPH,Humidity,HourlyPrecipIn,Conditions,Clouds,dailyrainin,SoftwareType,DateUTC
2013-07-07 00:13:00,74.9,70.4,30.02,SE,128,1.1,3.4,86,0.00,,,0.00,VWS V14.01,2013-07-07 05:13:00,
2013-07-07 00:28:00,74.6,70.5,30.02,ESE,110,1.1,3.4,87,0.00,,,0.00,VWS V14.01,2013-07-07 05:28:00,
2013-07-07 00:43:00,74.2,70.4,30.02,SE,142,0.0,2.3,88,0.00,,,0.00,VWS V14.01,2013-07-07 05:43:00,
2013-07-07 00:58:00,74.0,70.2,30.02,SE,124,0.0,3.4,88,0.00,,,0.00,VWS V14.01,2013-07-07 05:58:00,
2013-07-07 01:13:00,73.8,70.4,30.01,South,188,0.0,2.3,89,0.00,,,0.00,VWS V14.01,2013-07-07 06:13:00,
2013-07-07 01:28:00,73.6,70.5,30.01,SSE,153,0.0,2.3,90,0.00,,,0.00,VWS V14.01,2013-07-07 06:28:00,
2013-07-07 01:43:00,73.4,70.3,30.01,SSW,205,0.0,4.6,90,0.00,,,0.00,VWS V14.01,2013-07-07 06:43:00,
2013-07-07 01:58:00,73.2,70.4,30.01,ESE,103,1.1,2.3,91,0.00,,,0.00,VWS V14.01,2013-07-07 06:58:00,
2013-07-07 02:13:00,72.9,70.1,30.01,ESE,120,0.0,3.4,91,0.00,,,0.00,VWS V14.01,2013-07-07 07:13:00,
2013-07-07 02:28:00,72.8,70.0,30.01,SSW,193,0.0,2.3,91,0.00,,,0.00,VWS V14.01,2013-07-07 07:28:00,
2013-07-07 02:43:00,72.6,70.2,30.01,SE,136,0.0,3.4,92,0.00,,,0.00,VWS V14.01,2013-07-07 07:43:00,
2013-07-07 02:58:00,72.4,69.9,30.01,ESE,105,2.3,2.3,92,0.00,,,0.00,VWS V14.01,2013-07-07 07:58:00,
2013-07-07 03:13:00,72.0,69.9,30.01,South,173,0.0,2.3,93,0.00,,,0.00,VWS V14.01,2013-07-07 08:13:00,
2013-07-07 03:28:00,71.8,69.7,30.02,SE,125,2.3,2.3,93,0.00,,,0.00,VWS V14.01,2013-07-07 08:28:00,
2013-07-07 03:43:00,71.6,69.8,30.02,SSE,155,0.0,4.6,94,0.00,,,0.00,VWS V14.01,2013-07-07 08:43:00,
2013-07-07 03:58:00,71.4,69.6,30.02,SE,135,0.0,1.1,94,0.00,,,0.00,VWS V14.01,2013-07-07 08:58:00,
2013-07-07 04:13:00,71.2,69.4,30.02,ESE,109,0.0,3.4,94,0.00,,,0.00,VWS V14.01,2013-07-07 09:13:00,
2013-07-07 04:28:00,71.0,69.5,30.01,SE,131,0.0,2.3,95,0.00,,,0.00,VWS V14.01,2013-07-07 09:28:00,
2013-07-07 04:43:00,70.8,69.3,30.02,SE,142,0.0,1.1,95,0.00,,,0.00,VWS V14.01,2013-07-07 09:43:00,
2013-07-07 04:58:00,70.7,69.2,30.02,SE,133,0.0,2.3,95,0.00,,,0.00,VWS V14.01,2013-07-07 09:58:00,
2013-07-07 05:13:00,70.3,68.8,30.02,SE,130,0.0,1.1,95,0.00,,,0.00,VWS V14.01,2013-07-07 10:13:00,
2013-07-07 05:28:00,69.9,68.4,30.03,SE,130,0.0,0.0,95,0.00,,,0.00,VWS V14.01,2013-07-07 10:28:00,
2013-07-07 05:43:00,69.7,68.5,30.03,SE,130,0.0,0.0,96,0.00,,,0.00,VWS V14.01,2013-07-07 10:43:00,
2013-07-07 05:58:00,69.9,68.7,30.03,SW,236,0.0,1.1,96,0.00,,,0.00,VWS V14.01,2013-07-07 10:58:00,
2013-07-07 06:13:00,70.1,68.9,30.03,SW,214,1.1,2.3,96,0.00,,,0.00,VWS V14.01,2013-07-07 11:13:00,
2013-07-07 06:28:00,70.5,69.3,30.03,SSE,153,0.0,2.3,96,0.00,,,0.00,VWS V14.01,2013-07-07 11:28:00,
2013-07-07 06:43:00,70.7,69.5,30.04,SE,128,0.0,2.3,96,0.00,,,0.00,VWS V14.01,2013-07-07 11:43:00,
2013-07-07 06:58:00,71.2,70.0,30.05,ESE,110,0.0,2.3,96,0.00,,,0.00,VWS V14.01,2013-07-07 11:58:00,
2013-07-07 07:13:00,71.6,70.4,30.05,ESE,117,0.0,3.4,96,0.00,,,0.00,VWS V14.01,2013-07-07 12:13:00,
2013-07-07 07:28:00,72.3,70.8,30.06,ESE,107,0.0,3.4,95,0.00,,,0.00,VWS V14.01,2013-07-07 12:28:00,
2013-07-07 07:43:00,72.9,71.1,30.06,SW,231,0.0,3.4,94,0.00,,,0.00,VWS V14.01,2013-07-07 12:43:00,
2013-07-07 07:58:00,73.1,71.0,30.07,SE,141,1.1,3.4,93,0.00,,,0.00,VWS V14.01,2013-07-07 12:58:00,
2013-07-07 08:13:00,73.7,71.6,30.07,SE,135,1.1,3.4,93,0.00,,,0.00,VWS V14.01,2013-07-07 13:13:00,
2013-07-07 08:28:00,74.2,71.4,30.07,South,190,0.0,3.4,91,0.00,,,0.00,VWS V14.01,2013-07-07 13:28:00,
2013-07-07 08:43:00,74.6,71.8,30.07,SSE,167,0.0,3.4,91,0.00,,,0.00,VWS V14.01,2013-07-07 13:43:00,
2013-07-07 08:58:00,75.8,72.7,30.07,SSW,198,1.1,3.4,90,0.00,,,0.00,VWS V14.01,2013-07-07 13:58:00,
2013-07-07 09:13:00,76.6,72.8,30.07,South,190,2.3,3.4,88,0.00,,,0.00,VWS V14.01,2013-07-07 14:13:00,
2013-07-07 09:28:00,77.5,73.0,30.08,SE,137,0.0,2.3,86,0.00,,,0.00,VWS V14.01,2013-07-07 14:28:00,
2013-07-07 09:43:00,77.7,73.2,30.08,East,98,0.0,2.3,86,0.00,,,0.00,VWS V14.01,2013-07-07 14:43:00,
2013-07-07 09:58:00,78.1,72.9,30.07,SE,125,1.1,2.3,84,0.00,,,0.00,VWS V14.01,2013-07-07 14:58:00,
2013-07-07 10:13:00,79.2,73.2,30.08,ESE,113,0.0,2.3,82,0.00,,,0.00,VWS V14.01,2013-07-07 15:13:00,
2013-07-07 10:28:00,79.6,73.3,30.08,ESE,113,0.0,3.4,81,0.00,,,0.00,VWS V14.01,2013-07-07 15:28:00,
2013-07-07 10:43:00,80.0,73.7,30.08,SSE,148,0.0,5.8,81,0.00,,,0.00,VWS V14.01,2013-07-07 15:43:00,
2013-07-07 10:58:00,81.2,73.7,30.08,SSW,199,1.1,3.4,78,0.00,,,0.00,VWS V14.01,2013-07-07 15:58:00,
2013-07-07 11:13:00,82.5,74.6,30.08,ENE,72,0.0,3.4,77,0.00,,,0.00,VWS V14.01,2013-07-07 16:13:00,
2013-07-07 11:28:00,83.8,75.0,30.08,East,81,1.1,4.6,75,0.00,,,0.00,VWS V14.01,2013-07-07 16:28:00,
2013-07-07 11:43:00,84.8,74.4,30.08,ESE,115,1.1,4.6,71,0.00,,,0.00,VWS V14.01,2013-07-07 16:43:00,
2013-07-07 11:58:00,85.2,73.4,30.07,South,173,2.3,4.6,68,0.00,,,0.00,VWS V14.01,2013-07-07 16:58:00,
2013-07-07 12:13:00,86.8,75.8,30.07,SE,133,0.0,4.6,70,0.00,,,0.00,VWS V14.01,2013-07-07 17:13:00,
2013-07-07 12:28:00,88.0,75.7,30.07,East,89,2.3,5.8,67,0.00,,,0.00,VWS V14.01,2013-07-07 17:28:00,
2013-07-07 12:43:00,88.7,74.0,30.06,ESE,108,2.3,6.9,62,0.00,,,0.00,VWS V14.01,2013-07-07 17:43:00,
2013-07-07 12:58:00,88.2,73.6,30.06,East,81,0.0,6.9,62,0.00,,,0.00,VWS V14.01,2013-07-07 17:58:00,
2013-07-07 13:13:00,87.1,73.9,30.06,SSW,207,0.0,2.3,65,0.00,,,0.00,VWS V14.01,2013-07-07 18:13:00,
2013-07-07 13:28:00,87.9,73.7,30.05,SW,233,1.1,3.4,63,0.00,,,0.00,VWS V14.01,2013-07-07 18:28:00,
2013-07-07 13:43:00,86.7,74.9,30.05,East,94,0.0,3.4,68,0.00,,,0.00,VWS V14.01,2013-07-07 18:43:00,
2013-07-07 13:58:00,86.1,73.4,30.05,SSW,205,0.0,6.9,66,0.00,,,0.00,VWS V14.01,2013-07-07 18:58:00,
2013-07-07 14:13:00,87.5,74.3,30.05,SW,217,1.1,6.9,65,0.00,,,0.00,VWS V14.01,2013-07-07 19:13:00,
2013-07-07 14:28:00,87.2,74.9,30.04,ENE,65,1.1,9.2,67,0.00,,,0.00,VWS V14.01,2013-07-07 19:28:00,
2013-07-07 14:43:00,87.7,75.8,30.05,SW,226,1.1,9.2,68,0.00,,,0.00,VWS V14.01,2013-07-07 19:43:00,
2013-07-07 14:58:00,88.8,75.1,30.04,South,179,1.1,9.2,64,0.00,,,0.00,VWS V14.01,2013-07-07 19:58:00,
2013-07-07 15:13:00,88.9,75.6,30.04,ESE,112,3.4,8.1,65,0.00,,,0.00,VWS V14.01,2013-07-07 20:13:00,
2013-07-07 15:28:00,90.0,76.2,30.04,ESE,115,3.4,8.1,64,0.00,,,0.00,VWS V14.01,2013-07-07 20:28:00,
2013-07-07 15:43:00,89.9,75.6,30.03,SE,124,1.1,9.2,63,0.00,,,0.00,VWS V14.01,2013-07-07 20:43:00,
2013-07-07 15:58:00,89.2,74.0,30.02,ESE,113,3.4,9.2,61,0.00,,,0.00,VWS V14.01,2013-07-07 20:58:00,
2013-07-07 16:13:00,89.4,74.2,30.01,SW,224,0.0,5.8,61,0.00,,,0.00,VWS V14.01,2013-07-07 21:13:00,
2013-07-07 16:28:00,89.0,74.8,30.01,East,84,2.3,8.1,63,0.00,,,0.00,VWS V14.01,2013-07-07 21:28:00,
2013-07-07 16:43:00,89.5,72.8,30.01,South,177,0.0,4.6,58,0.00,,,0.00,VWS V14.01,2013-07-07 21:43:00,
2013-07-07 16:58:00,90.0,73.8,30.01,ESE,106,1.1,5.8,59,0.00,,,0.00,VWS V14.01,2013-07-07 21:58:00,
2013-07-07 17:13:00,89.4,73.2,30.01,East,101,1.1,4.6,59,0.00,,,0.00,VWS V14.01,2013-07-07 22:13:00,
2013-07-07 17:28:00,88.8,72.6,30.01,ESE,113,2.3,5.8,59,0.00,,,0.00,VWS V14.01,2013-07-07 22:28:00,
2013-07-07 17:43:00,89.2,71.5,30.01,ESE,106,3.4,4.6,56,0.00,,,0.00,VWS V14.01,2013-07-07 22:43:00,
2013-07-07 17:58:00,89.3,72.6,30.01,SW,229,2.3,4.6,58,0.00,,,0.00,VWS V14.01,2013-07-07 22:58:00,
2013-07-07 18:13:00,88.8,72.6,30.01,SE,134,0.0,4.6,59,0.00,,,0.00,VWS V14.01,2013-07-07 23:13:00,
2013-07-07 18:28:00,87.6,72.0,30.01,SE,136,0.0,4.6,60,0.00,,,0.00,VWS V14.01,2013-07-07 23:28:00,
2013-07-07 18:43:00,87.0,72.4,30.01,SSE,165,0.0,2.3,62,0.00,,,0.00,VWS V14.01,2013-07-07 23:43:00,
2013-07-07 18:58:00,86.5,71.9,30.01,South,191,0.0,2.3,62,0.00,,,0.00,VWS V14.01,2013-07-07 23:58:00,
2013-07-07 19:13:00,85.8,72.2,30.01,SE,125,1.1,3.4,64,0.00,,,0.00,VWS V14.01,2013-07-08 00:13:00,
2013-07-07 19:28:00,85.0,72.8,30.01,ESE,117,0.0,2.3,67,0.00,,,0.00,VWS V14.01,2013-07-08 00:28:00,
2013-07-07 19:43:00,84.4,72.7,30.02,SSE,155,1.1,2.3,68,0.00,,,0.00,VWS V14.01,2013-07-08 00:43:00,
2013-07-07 19:58:00,83.9,73.1,30.03,SE,127,0.0,2.3,70,0.00,,,0.00,VWS V14.01,2013-07-08 00:58:00,
2013-07-07 20:13:00,82.9,72.9,30.03,SE,127,0.0,1.1,72,0.00,,,0.00,VWS V14.01,2013-07-08 01:13:00,
2013-07-07 20:28:00,82.1,72.6,30.03,SE,127,0.0,1.1,73,0.00,,,0.00,VWS V14.01,2013-07-08 01:28:00,
2013-07-07 20:43:00,81.3,72.6,30.03,SE,127,0.0,1.1,75,0.00,,,0.00,VWS V14.01,2013-07-08 01:43:00,
2013-07-07 20:58:00,80.5,72.2,30.03,SE,139,0.0,1.1,76,0.00,,,0.00,VWS V14.01,2013-07-08 01:58:00,
2013-07-07 21:13:00,79.2,71.8,30.04,SE,140,0.0,0.0,78,0.00,,,0.00,VWS V14.01,2013-07-08 02:13:00,
2013-07-07 21:28:00,78.4,72.1,30.04,SE,139,0.0,0.0,81,0.00,,,0.00,VWS V14.01,2013-07-08 02:28:00,
2013-07-07 21:43:00,77.5,71.9,30.04,SE,139,0.0,0.0,83,0.00,,,0.00,VWS V14.01,2013-07-08 02:43:00,
2013-07-07 21:58:00,77.0,71.8,30.05,SE,140,0.0,0.0,84,0.00,,,0.00,VWS V14.01,2013-07-08 02:58:00,
2013-07-07 22:13:00,76.7,71.9,30.05,SE,140,0.0,0.0,85,0.00,,,0.00,VWS V14.01,2013-07-08 03:13:00,
2013-07-07 22:28:00,76.3,71.5,30.05,SE,140,0.0,0.0,85,0.00,,,0.00,VWS V14.01,2013-07-08 03:28:00,
2013-07-07 22:43:00,76.4,71.6,30.05,SE,139,0.0,0.0,85,0.00,,,0.00,VWS V14.01,2013-07-08 03:43:00,
2013-07-07 22:58:00,76.8,71.6,30.05,ESE,109,0.0,0.0,84,0.00,,,0.00,VWS V14.01,2013-07-08 03:58:00,
2013-07-07 23:13:00,76.6,71.8,30.05,ESE,108,0.0,1.1,85,0.00,,,0.00,VWS V14.01,2013-07-08 04:13:00,
2013-07-07 23:28:00,76.9,71.7,30.06,ESE,110,0.0,2.3,84,0.00,,,0.00,VWS V14.01,2013-07-08 04:28:00,
2013-07-07 23:43:00,77.0,72.2,30.06,SE,127,0.0,3.4,85,0.00,,,0.00,VWS V14.01,2013-07-08 04:43:00,
2013-07-07 23:58:00,76.6,72.1,30.06,SE,129,0.0,3.4,86,0.00,,,0.00,VWS V14.01,2013-07-08 04:58:00,